Temperature
21 21 20 20 20 20 20 20 19 19 19 19 18 18 18 18 18 18 17 17 17 17 17 17 17 17 17 17 16 16 16 16 16 15 15 15 15 14 14 14 14 14 14
21 21 21 20 20 20 20 20 19 19 19 19 19 18 18 18 18 18 18 17 17 17 17 17 17 17 17 16 16 16 16 16 16 15 15 15 14 14 14 14 14 13 13
21 21 20 20 20 20 20 20 19 19 19 19 19 18 18 18 18 18 18 17 17 17 17 17 17 17 16 16 16 16 16 16 15 15 15 14 14 14 14 14 14 13 13
21 21 20 20 20 20 20 20 20 19 19 19 19 18 18 18 18 18 18 17 17 17 17 17 17 17 16 16 16 16 16 15 15 15 15 14 14 14 14 13 13 13 13
21 20 20 20 20 20 20 20 19 19 19 19 19 18 18 18 18 18 18 18 17 17 17 17 17 16 16 16 16 16 15 15 15 15 14 14 14 14 14 13 13 13 13
21 21 21 20 20 20 19 19 19 19 19 19 19 18 18 18 18 17 17 17 17 17 17 17 16 16 16 16 15 15 15 15 15 14 14 14 14 14 14 13 13 13 12
21 21 20 20 20 20 19 19 19 19 19 18 18 18 18 18 18 17 17 17 17 17 17 16 16 16 16 16 15 15 15 15 15 15 14 14 14 14 13 13 13 13 13
21 20 20 20 19 19 19 19 19 18 18 18 18 18 18 17 17 17 17 17 16 16 16 16 16 16 15 15 15 15 15 15 14 14 14 14 14 14 13 13 13 13 13
20 20 20 20 20 19 19 19 18 18 18 18 18 18 17 17 17 17 17 16 16 16 16 16 16 15 15 15 15 15 15 14 14 14 14 14 13 13 13 13 13 12 12
20 20 20 20 19 19 19 19 18 18 18 18 17 17 17 17 17 17 16 16 16 16 16 15 15 15 15 15 14 14 14 14 14 14 14 13 13 13 13 13 12 12 12
20 20 19 19 19 19 18 18 18 18 17 17 17 17 17 17 17 17 16 16 16 16 16 15 15 15 15 14 14 14 14 14 14 13 13 13 13 13 12 12 12 12 12
19 19 19 19 18 18 18 18 18 17 17 17 17 17 16 16 16 16 16 16 16 16 15 15 15 15 14 14 14 14 14 13 13 13 13 13 13 13 12 12 12 12 12
19 19 18 18 18 18 17 17 17 17 17 17 16 16 16 16 16 16 16 15 15 15 15 15 15 15 14 14 14 14 13 13 13 13 12 12 12 12 12 12 12 12 12
18 18 18 18 18 17 17 17 17 17 16 16 16 16 16 16 16 16 15 15 15 15 15 15 14 14 14 14 13 13 13 13 13 12 12 12 12 12 12 12 11 11 11
18 18 17 17 17 17 17 16 16 16 16 16 16 16 16 16 16 15 15 15 15 14 14 14 14 14 14 13 13 13 13 13 12 12 12 12 12 11 11 11 11 11 11
17 17 17 16 16 16 16 16 16 16 16 16 15 15 15 15 15 15 15 14 14 14 14 14 14 13 13 13 13 13 13 12 12 12 12 12 12 11 11 11 11 11 11
17 16 16 16 16 16 16 16 15 15 15 15 15 15 15 14 14 14 14 14 14 14 13 13 13 13 13 13 13 13 13 12 12 12 12 11 11 11 11 11 11 11 10
16 16 16 16 16 16 15 15 15 15 15 15 15 15 14 14 14 14 14 14 13 13 13 13 13 13 13 12 12 12 12 12 12 12 11 11 11 11 11 11 11 10 10
16 16 16 15 15 15 15 15 15 14 14 14 14 14 14 14 14 14 14 14 13 13 13 13 13 12 12 12 12 12 12 12 11 11 11 11 11 11 11 10 10 10 10
16 15 15 15 15 15 15 14 14 14 14 14 14 14 14 14 14 14 13 13 13 13 13 13 13 12 12 12 12 11 11 11 11 11 11 11 11 10 10 10 10 10 10
15 15 15 15 15 15 15 14 14 14 14 14 14 14 14 14 14 14 13 13 13 13 13 12 12 12 12 12 11 11 11 11 11 11 11 10 10 10 10 10 10 10 10
15 15 15 15 14 14 14 14 14 14 14 14 14 14 14 14 13 13 13 13 13 13 12 12 12 12 12 11 11 11 11 11 11 10 10 10 10 10 10 10 10 10 9
15 15 14 14 14 14 14 14 14 14 14 14 14 14 13 13 13 13 13 12 12 12 12 12 12 11 11 11 11 11 11 10 10 10 10 10 10 10 10 9 9 9 9
14 14 14 14 14 14 14 14 14 14 14 13 13 13 13 13 13 12 12 12 12 12 12 12 11 11 11 11 11 10 10 10 10 10 9 9 9 9 9 9 9 9 9
14 14 14 14 14 14 14 14 13 13 13 13 13 13 12 12 12 12 12 12 12 12 12 11 11 11 10 10 10 10 10 10 10 9 9 9 9 9 9 9 9 8 8
14 14 14 14 14 13 13 13 13 13 13 13 13 12 12 12 12 12 12 12 11 11 11 11 10 10 10 10 10 10 10 9 9 9 9 9 9 9 9 8 8 8 8
Wind_Speed
8 7 6 6 6 6 5 5 5 4 4 4 3 3 2 2 2 2 2 2 1 0 0 1 1 2 2 2 2 2 2 3 3 1 1 1 2 3 3 4 3 3 2
7 7 6 6 6 6 6 5 5 5 4 4 3 3 2 2 2 2 2 2 2 1 1 1 1 2 2 2 2 2 2 2 3 3 1 1 2 3 4 3 3 3 3
8 7 6 6 6 6 6 5 5 5 4 4 4 4 3 2 2 2 3 2 2 2 2 2 2 3 2 2 2 2 2 2 3 3 2 1 1 2 2 2 2 1 3
8 8 7 7 7 7 6 5 5 5 5 4 4 4 3 3 3 3 3 3 2 2 2 2 2 3 3 3 3 3 3 3 2 3 2 1 1 1 2 1 1 1 2
9 9 8 6 5 5 5 5 5 5 5 5 4 3 3 3 3 3 3 3 3 2 1 1 1 3 4 4 4 3 4 3 3 2 2 1 1 2 3 2 2 2 2
9 9 8 7 7 6 6 5 5 4 4 4 4 4 3 3 4 6 5 3 3 3 2 1 1 2 3 4 5 6 7 6 5 3 3 3 4 4 3 3 3 2 2
9 8 8 7 7 7 7 6 6 5 4 4 4 4 3 3 5 6 6 4 3 3 3 2 1 1 2 2 3 3 4 6 8 7 6 6 5 6 5 4 4 4 4
8 8 7 7 7 6 6 6 5 4 4 4 4 4 3 4 5 6 6 4 3 3 3 3 3 2 3 4 3 2 2 3 5 6 6 7 6 6 7 7 6 4 2
8 8 7 8 7 6 6 6 5 5 4 4 3 4 4 4 5 5 5 3 2 3 3 3 4 4 5 6 4 3 2 3 3 5 6 6 7 8 7 4 3 2 2
8 8 7 7 7 7 7 6 4 4 4 4 4 4 4 3 4 5 5 3 3 2 2 2 4 5 6 6 5 4 4 4 2 1 2 3 4 5 8 7 6 5 3
6 6 6 6 6 6 5 4 4 4 3 3 3 3 3 4 4 5 6 4 4 3 3 3 3 5 6 6 6 5 6 4 3 3 2 2 2 2 4 5 6 6 5
6 5 5 5 5 5 5 5 4 4 4 3 2 2 1 2 3 4 6 6 5 4 4 4 3 5 5 5 4 5 5 3 2 1 2 2 3 3 4 4 6 7 7
6 5 4 4 3 4 5 5 4 4 4 3 3 3 2 1 2 4 5 6 6 4 3 4 3 4 4 4 5 5 4 3 2 2 3 4 3 4 3 2 2 3 4
6 5 4 4 4 3 3 4 4 4 4 4 4 4 3 2 2 2 2 3 3 3 2 2 3 3 2 3 3 3 3 4 4 4 4 4 2 2 2 2 2 2 2
5 4 4 4 4 3 3 3 4 4 6 6 5 5 4 4 6 7 5 4 4 4 2 1 1 1 2 2 2 3 3 3 3 4 3 3 3 3 3 3 3 3 4
5 4 3 3 3 3 3 1 2 1 3 6 7 6 5 6 6 7 8 7 6 6 4 2 3 3 4 4 4 4 4 4 4 4 4 4 4 4 4 3 3 4 5
5 4 3 3 3 3 3 3 1 2 2 1 4 5 5 4 5 6 6 5 4 6 3 4 4 5 4 4 4 4 5 5 4 4 4 5 4 4 4 4 4 4 5
5 5 4 3 3 3 3 3 3 3 1 2 2 3 4 5 5 5 5 4 1 3 4 5 5 5 5 4 5 5 5 4 4 4 5 5 5 5 5 5 5 5 5
3 3 3 3 3 3 3 3 2 3 2 2 1 1 2 2 3 4 6 4 4 5 5 5 5 5 5 5 5 5 5 4 4 4 5 5 5 5 5 5 5 6 5
2 3 3 3 3 3 2 2 2 2 2 2 3 3 2 2 2 3 4 4 5 5 5 5 5 5 5 5 5 4 4 4 4 5 5 5 5 5 6 6 6 5 5
2 3 4 3 3 3 3 3 3 3 3 3 3 4 6 4 5 5 5 5 5 5 5 5 4 4 4 3 3 4 4 4 4 4 4 5 5 5 5 5 6 6 5
2 2 2 2 2 2 2 2 3 3 3 3 2 2 5 3 3 3 4 4 4 4 3 3 3 3 3 3 3 3 3 3 3 3 4 5 5 5 4 4 4 4 4
2 2 2 2 2 2 2 2 2 2 3 3 2 2 2 3 2 3 3 3 3 2 2 2 3 2 2 3 3 3 3 4 4 4 4 5 4 4 3 4 4 4 4
2 2 2 2 2 2 2 2 2 2 2 2 2 2 2 3 3 3 3 3 3 2 2 2 2 3 3 3 2 3 3 4 4 4 5 4 4 3 3 3 4 5 4
2 2 3 3 3 2 2 2 2 2 2 2 2 2 2 2 2 2 2 2 2 2 2 2 2 3 3 3 3 3 4 4 4 4 4 4 4 4 3 3 3 3 3
1 2 2 2 2 2 2 2 2 2 3 3 3 3 3 2 2 2 2 2 2 3 3 2 2 3 3 4 4 4 4 4 4 4 4 4 4 4 3 3 3 3 3
Wind_Direction
184 182 175 174 173 167 170 176 176 170 167 169 167 159 150 146 144 138 151 151 146 167 131 140 166 162 165 172 164 157 149 145 158 210 189 163 162 164 157 163 156 153 173
181 176 177 172 166 170 177 177 169 166 168 171 162 157 159 154 148 150 159 146 146 157 156 131 156 140 144 156 146 154 164 154 151 167 188 166 184 178 166 172 173 172 183
170 170 171 171 169 177 183 176 167 166 168 164 156 162 169 163 156 164 156 148 151 158 152 152 157 128 140 147 149 155 161 148 137 151 176 191 181 165 150 193 193 186 197
169 172 172 180 180 181 179 175 173 168 167 166 167 174 176 172 173 173 154 141 134 133 140 151 161 157 168 165 156 157 148 132 130 144 155 183 192 179 155 176 204 224 218
168 171 179 182 179 178 175 173 171 167 174 172 170 180 184 179 191 176 162 153 146 136 122 138 160 161 163 164 153 155 147 144 147 147 161 159 195 178 198 190 194 212 240
166 177 181 176 173 177 181 173 167 171 172 166 174 185 194 205 191 179 171 166 165 163 174 204 201 154 162 162 160 160 160 161 170 170 183 197 213 206 195 186 174 165 246
169 176 181 179 181 187 185 174 174 178 175 175 184 179 190 206 188 180 177 166 168 179 186 193 210 199 172 166 173 167 186 191 182 180 190 209 207 204 189 194 197 196 217
170 177 178 177 181 180 171 172 178 178 180 187 192 187 195 217 198 185 178 168 173 188 192 193 195 215 201 179 171 171 211 225 216 204 205 213 210 202 196 199 204 211 238
175 179 180 173 171 172 173 177 179 176 185 189 183 184 195 217 198 186 171 162 178 204 209 200 191 203 216 191 176 192 230 266 247 214 209 211 209 201 188 165 165 171 231
180 180 178 172 170 175 180 180 174 171 185 183 187 190 191 200 190 179 172 173 191 217 241 237 215 210 209 195 188 190 217 244 237 252 241 241 225 212 197 190 188 192 205
167 165 165 167 174 175 173 173 165 168 173 182 183 190 192 198 196 186 178 179 197 205 222 239 244 222 213 208 200 205 219 222 217 222 240 251 251 240 229 217 204 197 200
143 145 156 164 170 166 163 170 168 167 172 182 174 189 218 205 194 207 194 197 198 197 218 227 232 226 226 221 214 226 221 201 198 216 241 256 250 246 243 232 225 222 221
135 144 149 150 152 153 162 173 175 178 185 196 188 198 219 228 227 224 209 207 207 206 225 219 223 228 227 231 234 226 209 198 196 212 235 247 246 249 256 255 247 236 247
140 149 149 145 146 149 157 169 180 191 192 193 195 204 210 214 224 220 221 219 214 220 242 251 252 243 237 246 242 231 217 209 204 220 235 246 249 253 248 236 239 236 245
145 154 155 156 156 155 155 173 190 206 201 196 204 198 197 222 231 209 198 207 208 207 180 183 244 247 246 252 250 244 230 218 225 231 233 248 254 250 250 238 229 225 228
149 158 160 153 151 153 148 104 14 252 220 208 203 199 216 221 214 205 208 209 199 171 157 204 226 229 231 233 235 240 234 230 231 231 234 238 243 245 251 247 232 227 235
159 165 161 158 160 166 167 164 186 337 358 246 220 212 213 215 210 203 204 203 188 164 182 217 226 229 232 232 234 234 236 235 228 227 233 238 238 240 245 250 244 240 243
162 166 162 167 173 181 185 186 185 189 237 290 282 237 223 211 206 197 172 137 174 199 222 227 234 234 232 231 233 239 244 245 236 235 238 240 239 238 242 245 243 242 246
161 167 168 165 172 179 177 177 185 195 206 224 248 280 243 206 191 188 169 185 212 227 232 233 234 233 233 232 235 237 239 239 239 237 240 240 240 238 241 243 243 245 244
170 174 164 162 169 176 177 176 187 200 206 207 211 213 184 153 192 210 211 223 226 231 233 236 239 238 235 231 232 236 240 245 245 245 247 246 241 233 235 239 240 241 244
180 182 172 166 182 189 188 190 196 204 213 219 229 216 191 197 210 215 214 223 229 235 236 235 236 236 233 231 233 237 240 249 249 247 248 249 245 240 237 236 238 240 244
176 175 175 188 194 189 190 197 197 207 221 220 235 226 204 209 213 213 217 224 231 236 231 220 224 223 219 222 230 238 246 256 261 262 263 256 246 243 242 239 240 242 243
172 177 175 179 177 176 175 186 189 199 213 210 203 200 203 216 224 227 229 230 229 233 231 221 221 227 214 216 223 225 237 250 256 256 256 258 256 254 251 250 248 249 249
173 188 182 173 164 163 171 189 194 196 207 206 205 207 214 220 232 245 247 244 234 227 221 214 216 222 214 217 229 230 243 254 257 253 252 253 253 254 251 253 257 255 250
177 185 184 178 174 172 171 183 191 195 206 211 217 222 226 225 233 241 249 252 240 226 222 214 225 227 226 228 241 254 265 260 258 258 251 249 252 251 245 246 251 259 262
155 165 181 177 176 176 176 186 206 217 215 215 213 212 214 222 233 235 234 233 244 252 240 230 234 230 242 242 251 267 273 272 271 269 252 243 245 248 244 242 247 248 255
Height
1526 1527 1529 1530 1531 1533 1534 1534 1535 1536 1537 1538 1538 1538 1538 1538 1538 1538 1538 1538 1538 1537 1537 1536 1536 1536 1536 1536 1536 1537 1537 1537 1537 1537 1538 1538 1538 1538 1538 1538 1538 1538 1538
1524 1526 1527 1529 1530 1531 1532 1533 1534 1535 1536 1537 1537 1537 1537 1537 1537 1537 1537 1537 1536 1536 1536 1535 1535 1534 1534 1534 1535 1535 1535 1536 1536 1535 1536 1536 1537 1537 1537 1537 1537 1537 1537
1522 1524 1526 1527 1528 1529 1530 1531 1532 1533 1534 1535 1535 1536 1536 1536 1536 1536 1536 1535 1535 1535 1535 1534 1534 1533 1533 1533 1533 1533 1534 1534 1534 1534 1534 1535 1535 1535 1535 1536 1536 1536 1536
1520 1522 1523 1525 1526 1527 1529 1530 1530 1531 1532 1533 1534 1534 1534 1535 1535 1535 1534 1534 1534 1534 1533 1533 1533 1532 1532 1531 1531 1532 1532 1533 1533 1533 1533 1533 1533 1533 1534 1533 1533 1534 1534
1517 1519 1521 1523 1524 1525 1526 1528 1529 1529 1530 1531 1532 1532 1533 1533 1533 1533 1533 1533 1532 1532 1532 1532 1532 1531 1531 1531 1530 1531 1531 1531 1531 1531 1531 1531 1531 1531 1531 1532 1532 1532 1532
1515 1517 1518 1520 1521 1522 1524 1525 1526 1527 1528 1529 1529 1530 1531 1531 1531 1532 1532 1532 1531 1531 1531 1531 1530 1530 1530 1529 1529 1529 1529 1529 1529 1529 1529 1529 1529 1530 1530 1530 1530 1530 1530
1512 1513 1515 1517 1518 1519 1521 1522 1523 1524 1526 1526 1527 1528 1528 1529 1529 1530 1530 1530 1530 1530 1529 1529 1529 1528 1528 1528 1528 1527 1527 1527 1527 1527 1527 1527 1527 1527 1528 1528 1527 1527 1527
1508 1510 1512 1513 1515 1515 1517 1519 1520 1522 1523 1524 1525 1526 1526 1527 1527 1528 1528 1528 1528 1527 1528 1527 1527 1526 1526 1526 1526 1525 1525 1525 1525 1525 1525 1525 1525 1525 1525 1525 1525 1525 1525
1505 1508 1509 1511 1512 1513 1515 1516 1517 1519 1520 1521 1522 1523 1523 1524 1524 1525 1525 1525 1525 1525 1525 1525 1525 1524 1524 1524 1523 1523 1522 1522 1522 1522 1522 1522 1522 1522 1522 1522 1522 1521 1520
1502 1505 1507 1508 1510 1511 1512 1514 1515 1516 1517 1518 1519 1519 1520 1521 1521 1522 1522 1522 1522 1522 1522 1522 1522 1521 1521 1521 1520 1520 1519 1519 1519 1519 1519 1519 1519 1519 1519 1518 1518 1518 1517
1500 1503 1504 1506 1507 1509 1510 1511 1512 1513 1514 1514 1515 1516 1517 1518 1518 1519 1519 1519 1519 1519 1519 1519 1519 1518 1518 1518 1518 1517 1517 1517 1516 1516 1515 1515 1514 1514 1514 1514 1514 1514 1514
1498 1500 1502 1503 1505 1506 1507 1509 1510 1510 1511 1512 1512 1513 1514 1515 1515 1516 1516 1516 1516 1516 1515 1515 1516 1515 1515 1515 1514 1514 1514 1513 1512 1512 1511 1511 1510 1510 1510 1509 1509 1509 1510
1496 1497 1499 1501 1502 1503 1504 1505 1506 1507 1508 1509 1509 1510 1510 1511 1512 1512 1512 1512 1513 1512 1512 1512 1512 1512 1512 1511 1511 1510 1510 1509 1508 1507 1507 1507 1507 1506 1505 1505 1505 1505 1505
1493 1495 1496 1497 1498 1500 1501 1502 1503 1504 1505 1505 1506 1506 1507 1507 1507 1508 1508 1508 1509 1509 1509 1509 1509 1508 1508 1507 1507 1506 1506 1505 1504 1504 1503 1503 1503 1502 1502 1502 1501 1501 1500
1491 1492 1493 1494 1496 1497 1498 1499 1500 1501 1502 1502 1502 1503 1503 1503 1504 1504 1505 1505 1504 1504 1505 1504 1504 1504 1503 1503 1503 1502 1502 1501 1501 1500 1500 1499 1499 1498 1498 1497 1497 1497 1496
1489 1490 1491 1492 1493 1494 1495 1496 1497 1498 1499 1499 1500 1500 1500 1501 1501 1501 1501 1501 1501 1501 1501 1500 1500 1499 1499 1498 1498 1498 1497 1497 1497 1496 1496 1495 1495 1494 1494 1493 1493 1492 1491
1487 1488 1489 1490 1491 1492 1492 1493 1494 1495 1496 1496 1496 1497 1497 1498 1498 1498 1498 1498 1498 1497 1497 1496 1496 1495 1495 1494 1494 1493 1493 1493 1493 1492 1492 1491 1491 1490 1490 1489 1488 1488 1487
1485 1486 1487 1488 1489 1490 1490 1491 1491 1492 1492 1492 1493 1493 1494 1494 1495 1494 1494 1494 1493 1493 1492 1492 1492 1491 1491 1490 1490 1489 1489 1488 1488 1487 1487 1486 1486 1485 1485 1484 1484 1483 1482
1483 1484 1485 1486 1487 1488 1488 1489 1489 1490 1490 1490 1490 1490 1491 1491 1491 1491 1490 1489 1489 1488 1488 1488 1487 1487 1486 1486 1485 1485 1484 1484 1483 1482 1482 1481 1481 1480 1480 1479 1478 1478 1477
1482 1483 1484 1485 1486 1486 1486 1487 1487 1488 1488 1487 1487 1487 1487 1487 1486 1486 1486 1485 1485 1484 1484 1483 1483 1482 1482 1481 1480 1480 1479 1479 1478 1477 1476 1476 1475 1475 1474 1473 1473 1473 1472
1481 1481 1482 1484 1484 1485 1485 1485 1485 1486 1485 1485 1485 1485 1485 1484 1483 1482 1482 1481 1481 1480 1479 1478 1478 1477 1477 1476 1475 1475 1474 1473 1473 1472 1471 1471 1470 1469 1468 1468 1468 1467 1467
1479 1480 1481 1482 1482 1482 1483 1483 1483 1483 1483 1483 1482 1482 1482 1481 1480 1479 1478 1478 1477 1477 1476 1475 1474 1473 1472 1472 1471 1470 1469 1468 1467 1467 1466 1465 1465 1464 1463 1463 1462 1462 1461
1477 1478 1479 1480 1480 1480 1480 1481 1481 1480 1480 1480 1479 1479 1478 1477 1476 1476 1475 1474 1474 1473 1472 1471 1470 1469 1468 1467 1466 1465 1464 1463 1462 1462 1461 1461 1460 1459 1458 1457 1457 1456 1456
1475 1476 1477 1477 1478 1478 1478 1478 1478 1477 1477 1477 1476 1475 1475 1474 1473 1472 1472 1471 1470 1469 1469 1468 1467 1465 1464 1463 1462 1461 1460 1459 1458 1458 1457 1456 1455 1454 1454 1453 1452 1452 1450
1473 1474 1474 1475 1475 1475 1475 1475 1474 1474 1474 1473 1473 1473 1472 1471 1470 1469 1468 1468 1467 1466 1465 1464 1463 1462 1460 1459 1458 1456 1456 1455 1454 1454 1453 1452 1451 1450 1450 1449 1448 1447 1447
1471 1471 1472 1472 1472 1472 1472 1471 1471 1471 1470 1470 1470 1469 1468 1467 1466 1465 1464 1464 1463 1462 1461 1459 1458 1457 1456 1455 1454 1453 1451 1451 1450 1449 1449 1448 1447 1447 1446 1445 1444 1444 1443